{"data":{"norad_id":67349,"epoch":"2026-05-25T01:21:20.527776Z","epoch_age_seconds":63496,"freshness":"FRESH","line1":"1 67349U 26003R   26145.05648759  .00017680  00000+0  65045-3 0  9996","line2":"2 67349  43.0004 155.7495 0001170 261.5703  98.5016 15.27580708 20500","mean_motion":15.27580708,"eccentricity":0.000117,"inclination_deg":43.0004,"raan_deg":155.7495,"arg_perigee_deg":261.5703,"mean_anomaly_deg":98.5016,"bstar":0.00065045,"rev_number":2050,"period_min":94.266705023091,"perigee_km":482.24421750857,"apogee_km":483.84973455897,"semimajor_km":6861.1839760338,"source":"CELESTRAK","updated_at":"2026-05-25T13:38:21.525261Z"}}